Regional Weather Roundup
Issued by NWS Grand Forks, ND

Home | Current Version | Previous Version | Graphics & Text | Print | Product List | Glossary On
Versions: 1 2 3 4 5 6 7 8 9 10 11 12 13 14 15 16 17 18 19 20 21 22 23 24 25 26 27 28 29 30 31 32 33 34 35 36 37 38 39 40 41 42 43 44 45 46 47 48 49 50
492
ASUS43 KFGF 202231
RWRFGF
PRAIRIE TO PINES  WEATHER ROUNDUP
NATIONAL WEATHER SERVICE EASTERN NORTH DAKOTA/GRAND FORKS ND
500 PM CDT FRI OCT 20 2017

 **SATELLITE DATA USED TO AUGMENT SKY COVER AT AUTOMATED STATIONS**
 *****  WEATHER ACROSS EASTERN NORTH DAKOTA  *****

CITY           SKY/WX    TMP DP  RH WIND       PRES   REMARKS
GRAND FORKS    PTSUNNY   76  53  44 S29G40    29.38S
GRAND FRKS AFB FAIR      74  51  44 S20G26    29.37S
DEVILS LAKE    FAIR      69  51  52 S22G29    29.32F
FARGO          FAIR      77  54  44 S24G39    29.42F
WAHPETON ARPT  NOT AVBL
$$

 ***** WEATHER ACROSS CENTRAL AND WESTERN NORTH DAKOTA  *****

CITY           SKY/WX    TMP DP  RH WIND       PRES   REMARKS
BISMARCK       FAIR      75  47  36 S23G31    29.27F
MINOT          FAIR      80  38  22 S8        29.23S
JAMESTOWN      FAIR      69  51  52 S16G25    29.37F
MINOT AFB      FAIR      75  38  25 S8        29.21S
GARRISON         N/A     76  42  29 S14       29.24S
WILLISTON        N/A    N/A N/A N/A MISG      29.20F
DICKINSON      FAIR      81  35  19 S14       29.23F
HETTINGER      FAIR      83  34  17 S16       29.26F
$$

 *****  OTHER AIRPORT OBSERVATIONS IN OUR AREA  *****

CITY           SKY/WX    TMP DP  RH WIND       PRES   REMARKS
WALHALLA       FAIR     N/A N/A N/A S22G33    29.30S
GRAFTON AIRPOR FAIR      73  52  46 S22G31    29.36F
VALLEY CITY AR FAIR      68  54  60 S10G17    29.41F
CANDO          FAIR      70  50  49 SE21      29.31S
CAVALIER APRT  FAIR      75  52  43 S17G25    29.31F
GWINNER        CLEAR     73  54  49 S21G29    29.42F
SHEYENNE NWR     N/A     77  54  44 S23       29.95S
ROLLA          FAIR      72  45  37 S15G23    29.29S
 ***** THE ABOVE OBSERVATIONS ARE NON NWS ARE NOT QUALITY
       CONTROLLED AND MAY MIS-REPORT RAIN FOR SNOW...
$$

  *****  WEATHER ACROSS NORTHERN MINNESOTA  *****

CITY           SKY/WX    TMP DP  RH WIND       PRES   REMARKS
FLAG ISLAND    FAIR      61  48  63 S22       29.45S
WARROAD        FAIR      75  54  46 SE17G23   29.45F
ROSEAU         FAIR      79  54  41 S22G30    29.43S
HALLOCK        FAIR      75  52  43 S24G32    29.36F
THF RVR FALLS  FAIR      75  51  43 S26G32    29.46F
BAUDETTE       FAIR      75  48  38 S17G33    29.51F
WASKISH        PTSUNNY   73  50  43 SE13G25   29.53F
CROOKSTON      FAIR      73  52  46 S22G29    29.42F
STEPHEN NDAWN    N/A     75  52  43 S20         N/A
GREENBUSH NDAW   N/A     77  52  41 W20         N/A
$$
  *****  WEATHER ACROSS CENTRAL AND WEST MINNESOTA  *****

CITY           SKY/WX    TMP DP  RH WIND       PRES   REMARKS
FOSSTON        FAIR      73  48  40 S24G31    29.48F
BEMIDJI        FAIR      73  51  46 S21G29    29.54F
PARK RAPIDS    FAIR      74  52  46 S24G35    29.57F
ELBOW LAKE     FAIR      72  53  50 S23G29    29.54F
WADENA         FAIR      73  52  46 S18G25    29.56F
DETROIT LAKES  FAIR      73  52  46 S18G24    29.53S
MOORHEAD       FAIR      75  54  46 S20G32    29.45S
FERGUS FALLS   FAIR      73  54  49 S18G25    29.51F
MORRIS MN      FAIR      75  54  46 S18G25    29.54F
STAPLES        FAIR      73  48  40 S18G26    29.59F
$$
  *****  WEATHER ELSEWHERE ACROSS MINNESOTA  *****

CITY           SKY/WX    TMP DP  RH WIND       PRES   REMARKS
DULUTH         FAIR      71  48  43 S14       29.73F
INTRNTL FALLS  FAIR      75  46  35 S9G21     29.58S
ELY            FAIR      72  45  37 S10       29.70S
CLOQUET        FAIR      73  41  31 S9G21     29.71F
WHEATON        FAIR      73  50  43 S18G26    29.51F
BRAINERD       FAIR      73  49  42 S20G32    29.64F
HIBBING        FAIR      71  48  43 S9G20     29.67F
ALEXANDRIA     FAIR      76  50  40 S23G35    29.60F
SAINT CLOUD    FAIR      75  51  43 S17G36    29.66F
MINNEAPOLIS    PTSUNNY   77  48  35 S15G25    29.73F
$$

  *****  WEATHER ACROSS SOUTH DAKOTA  *****

CITY           SKY/WX    TMP DP  RH WIND       PRES   REMARKS
SIOUX FALLS    PTSUNNY   75  56  51 S30G43    29.59F
BROOKINGS      FAIR      73  55  53 S25       29.56F
WATERTOWN      FAIR      71  55  56 S30G37    29.52F
HURON          FAIR      75  54  47 S17G28    29.47F
SISSETON         N/A     74  55  51 S20G30    29.47F
ABERDEEN       FAIR      76  54  46 S25G38    29.42F
MITCHELL       FAIR      77  54  44 S29G38    29.51F
PIERRE         FAIR      76  52  43 S21G28    29.36S
MOBRIDGE       FAIR      77  52  41 SE20G25   29.31F
RAPID CITY     FAIR      83  36  18 SW23      29.34F
$$

  *****  SOME WEATHER IN NEARBY STATES *****

CITY           SKY/WX    TMP DP  RH WIND       PRES   REMARKS
GLASGOW MT     FAIR      73  34  23 SE12      29.15F
GREAT FALLS MT LGT RAIN  44  34  67 W22G30    29.44R
CHEYENNE WY    FAIR      70  30  22 S15       29.60S
SCOTTSBLUFF NE FAIR      81  33  17 S15       29.47F
OMAHA NE       PTSUNNY   76  58  53 S24G30    29.73F
DES MOINES IA  PTSUNNY   72  52  49 S20       29.84F
DAVENPORT IA   FAIR      76  40  27 S16G25    30.00S
CHICAGO IL     CLOUDY    75  51  43 S9        30.04F
EAU CLAIRE WI  FAIR      73  46  38 S15       29.82F
LA CROSSE WI   FAIR      74  49  41 S15       29.87F
$$

  *****  SOME NATIONAL WEATHER *****

CITY           SKY/WX    TMP DP  RH WIND       PRES   REMARKS
LA GUARDIA NY  FAIR      72  39  30 NW13      30.10R
RALEIGH NC     FAIR      74  50  42 E6        30.20S
ATLANTA GA     FAIR      77  36  22 SE6       30.18F
NEW ORLEANS LA CLOUDY    79  70  74 E16       30.05S
OKLAHOMA CITY  PTSUNNY   76  61  59 S22G29    29.86F
ALBUQUERQUE NM PTSUNNY   72  43  35 S13       29.87F
SALT LAKE CITY PTSUNNY   48  36  63 VRB7      29.88R
LOS ANGELES CA FAIR      69  58  67 W17       29.89F
BOISE ID       PTSUNNY   50  33  52 W10G17    29.84S
SEATTLE WA     PTSUNNY   52  45  77 SW18G26   29.80R
$$

*** WEATHER ACROSS MANITOBA...SASKATCHEWAN AND ONTARIO ***
                ***ONTARIO***

CITY           SKY/WX    TMP DP  RH WIND       PRES   REMARKS
GERALDTON      PTCLDY    64  50  59 S8        29.80F
THUNDER BAY    MOCLDY    63  50  63 E8        29.76F
SIOUX LOOKOUT  MOCLDY    70  48  46 S8        29.60F
TORONTO        PTCLDY    68  36  30 SW12      30.15S
BIG TROUT LK   CLEAR     43  34  70 E13G20    29.82F
PICKLE LAKE    PTCLDY    61  41  48 E12G17    29.68F
DRYDEN         CLEAR     72  48  43 SE8       29.57F
KENORA         PTSUNNY   72  50  46 SE13G20   29.49F
$$
                *** MANITOBA***

CITY           SKY/WX    TMP DP  RH WIND       PRES   REMARKS
BRANDON        PTSUNNY   72  45  37 S13       29.24F
DAUPHIN        SUNNY     64  46  52 SE13      29.21S HAZE
ISLAND LAKE    MOCLDY    50  37  62 E18G24    29.58F
PILOT MOUND      N/A     72  48  43 S23G29      N/A
THE PAS        MOSUNNY   46  37  71 E12G18    29.34F
THOMPSON       MOCLDY    41  34  75 E10G22    29.58F
WINNIPEG       PTSUNNY   75  52  43 S23G29    29.31F
LYNN LAKE      CLOUDY    36  34  93 E15G22    29.51F
CHURCHILL      MOCLDY    34  28  80 SE16G24   29.91F WCI  23
GILLAM         MOCLDY    39  32  75 E10G21    29.75F
$$
                ***SASKATCHEWAN***

CITY           SKY/WX    TMP DP  RH WIND       PRES   REMARKS
ESTEVAN        MOSUNNY   77  32  19 S6        29.19S
KINDERSLEY     CLOUDY    59  34  38 N7        29.19F
LLOYDMINSTER   CLOUDY    48  37  66 NW9       29.25R
PRINCE ALBERT  CLOUDY    52  39  62 NE10      29.23
REGINA         CLOUDY    68  34  28 SE9       29.16S
YORKTON        SUNNY     73  39  29 S13G18    29.17S
N. BATTLEFORD  SUNNY     54  37  54 W8        29.22R
LA RONGE       CLOUDY    46  37  71 E8        29.31F
SASKATOON      CLOUDY    54  36  50 NE9       29.20S
SWIFT CURRENT  MOSUNNY   68  30  24 NW16      29.16S
$$
NOTE: THESE ARE AUTOMATED STATIONS WITH LIMITED QUALITY CONTROL
      "FAIR" INDICATES FEW OR NO CLOUDS BELOW 12,000 FEET WITH NO
      SIGNIFICANT WEATHER AND/OR OBSTRUCTIONS TO VISIBILITY.
      SKY/WX - SKY CONDITION AND SIGNIFICANT WEATHER.
      TMP - AIR TEMPERATURE.    DP   - DEWPOINT TEMPERATURE.
      RH  - RELATIVE HUMIDITY.  PRES - PRESSURE.
      HX  - HEAT INDEX.         WCI  - WIND CHILL INDEX.
$




USA.gov is the U.S. government's official web portal to all federal, state and local government web resources and services.